Time,TemperatureF,DewpointF,PressureIn,WindDirection,WindDirectionDegrees,WindSpeedMPH,WindSpeedGustMPH,Humidity,HourlyPrecipIn,Conditions,Clouds,dailyrainin,SoftwareType,DateUTC
2013-06-22 00:02:00,77.6,70.2,24.22,SW,221,0.0,0.0,78,0.00,,,0.00,Wunderground v.1.15,2013-06-22 05:02:00,
2013-06-22 00:07:00,77.5,70.1,24.22,SW,221,0.0,0.0,78,0.00,,,0.00,Wunderground v.1.15,2013-06-22 05:07:00,
2013-06-22 00:13:00,77.3,69.9,24.22,SW,221,0.0,0.0,78,0.00,,,0.00,Wunderground v.1.15,2013-06-22 05:13:00,
2013-06-22 00:19:00,77.1,70.1,24.22,SW,221,0.0,0.0,79,0.00,,,0.00,Wunderground v.1.15,2013-06-22 05:19:00,
2013-06-22 00:25:00,77.0,70.0,24.22,SW,221,0.0,0.0,79,0.00,,,0.00,Wunderground v.1.15,2013-06-22 05:25:00,
2013-06-22 00:30:00,76.9,69.9,24.22,SW,221,0.0,0.0,79,0.00,,,0.00,Wunderground v.1.15,2013-06-22 05:30:00,
2013-06-22 00:36:00,76.7,69.7,24.22,SW,221,0.0,0.0,79,0.00,,,0.00,Wunderground v.1.15,2013-06-22 05:36:00,
2013-06-22 00:42:00,76.6,70.0,24.22,SW,221,0.0,0.0,80,0.00,,,0.00,Wunderground v.1.15,2013-06-22 05:42:00,
2013-06-22 00:48:00,76.4,69.8,24.23,SW,221,0.0,0.0,80,0.00,,,0.00,Wunderground v.1.15,2013-06-22 05:48:00,
2013-06-22 00:54:00,76.3,69.7,24.23,SW,221,0.0,0.0,80,0.00,,,0.00,Wunderground v.1.15,2013-06-22 05:54:00,
2013-06-22 01:00:00,76.1,69.5,24.23,SW,221,0.0,0.0,80,0.00,,,0.00,Wunderground v.1.15,2013-06-22 06:00:00,
2013-06-22 01:06:00,76.0,69.4,24.23,SW,221,0.0,0.0,80,0.00,,,0.00,Wunderground v.1.15,2013-06-22 06:06:00,
2013-06-22 01:11:00,75.8,69.6,24.23,SW,221,0.0,0.0,81,0.00,,,0.00,Wunderground v.1.15,2013-06-22 06:11:00,
2013-06-22 01:17:00,75.7,69.5,24.22,SW,221,0.0,0.0,81,0.00,,,0.00,Wunderground v.1.15,2013-06-22 06:17:00,
2013-06-22 01:23:00,75.6,69.7,24.23,SW,221,0.0,0.0,82,0.00,,,0.00,Wunderground v.1.15,2013-06-22 06:23:00,
2013-06-22 01:29:00,75.5,69.6,24.23,SW,221,0.0,0.0,82,0.00,,,0.00,Wunderground v.1.15,2013-06-22 06:29:00,
2013-06-22 01:34:00,75.5,70.0,24.22,SW,221,0.0,0.0,83,0.00,,,0.00,Wunderground v.1.15,2013-06-22 06:34:00,
2013-06-22 01:40:00,75.5,70.0,24.22,SW,221,0.0,0.0,83,0.00,,,0.00,Wunderground v.1.15,2013-06-22 06:40:00,
2013-06-22 01:46:00,75.4,70.2,24.22,SW,221,0.0,0.0,84,0.00,,,0.00,Wunderground v.1.15,2013-06-22 06:46:00,
2013-06-22 01:52:00,75.5,70.3,24.22,SW,221,0.0,0.0,84,0.00,,,0.00,Wunderground v.1.15,2013-06-22 06:52:00,
2013-06-22 01:57:00,75.5,70.3,24.23,SW,221,0.0,0.0,84,0.00,,,0.00,Wunderground v.1.15,2013-06-22 06:57:00,
2013-06-22 02:02:00,75.5,70.3,24.22,SW,221,0.0,0.0,84,0.00,,,0.00,Wunderground v.1.15,2013-06-22 07:02:00,
2013-06-22 02:07:00,75.5,70.3,24.22,SW,221,0.0,0.0,84,0.00,,,0.00,Wunderground v.1.15,2013-06-22 07:07:00,
2013-06-22 02:12:00,75.5,70.3,24.22,SW,221,0.0,0.0,84,0.00,,,0.00,Wunderground v.1.15,2013-06-22 07:12:00,
2013-06-22 02:17:00,75.5,70.3,24.22,SW,221,0.0,0.0,84,0.00,,,0.00,Wunderground v.1.15,2013-06-22 07:17:00,
2013-06-22 02:22:00,75.5,70.3,24.22,SW,221,0.0,0.0,84,0.00,,,0.00,Wunderground v.1.15,2013-06-22 07:22:00,
2013-06-22 02:27:00,75.4,69.9,24.22,SW,221,0.0,0.0,83,0.00,,,0.00,Wunderground v.1.15,2013-06-22 07:27:00,
2013-06-22 02:32:00,75.4,69.9,24.22,SW,221,0.0,0.0,83,0.00,,,0.00,Wunderground v.1.15,2013-06-22 07:32:00,
2013-06-22 02:37:00,75.4,69.9,24.22,SW,221,0.0,0.0,83,0.00,,,0.00,Wunderground v.1.15,2013-06-22 07:37:00,
2013-06-22 02:42:00,75.4,69.9,24.22,SW,221,0.0,0.0,83,0.00,,,0.00,Wunderground v.1.15,2013-06-22 07:42:00,
2013-06-22 02:47:00,75.3,69.8,24.22,SW,221,0.0,0.0,83,0.00,,,0.00,Wunderground v.1.15,2013-06-22 07:47:00,
2013-06-22 02:52:00,75.2,69.7,24.22,SW,221,0.0,0.0,83,0.00,,,0.00,Wunderground v.1.15,2013-06-22 07:52:00,
2013-06-22 02:57:00,75.1,69.9,24.22,SW,221,0.0,0.0,84,0.00,,,0.00,Wunderground v.1.15,2013-06-22 07:57:00,
2013-06-22 03:02:00,75.1,69.9,24.22,SW,221,0.0,0.0,84,0.00,,,0.00,Wunderground v.1.15,2013-06-22 08:02:00,
2013-06-22 03:07:00,75.0,69.8,24.22,SW,221,0.0,0.0,84,0.00,,,0.00,Wunderground v.1.15,2013-06-22 08:07:00,
2013-06-22 03:12:00,75.0,69.8,24.22,SW,221,0.0,0.0,84,0.00,,,0.00,Wunderground v.1.15,2013-06-22 08:12:00,
2013-06-22 03:17:00,74.9,69.7,24.22,SW,221,0.0,1.0,84,0.00,,,0.00,Wunderground v.1.15,2013-06-22 08:17:00,
2013-06-22 03:22:00,74.9,69.7,24.22,East,86,0.0,0.0,84,0.00,,,0.00,Wunderground v.1.15,2013-06-22 08:22:00,
2013-06-22 03:27:00,74.8,69.6,24.22,East,101,0.0,1.0,84,0.00,,,0.00,Wunderground v.1.15,2013-06-22 08:27:00,
2013-06-22 03:32:00,74.8,69.6,24.23,East,101,0.0,0.0,84,0.00,,,0.00,Wunderground v.1.15,2013-06-22 08:32:00,
2013-06-22 03:37:00,74.7,69.5,24.22,East,101,0.0,0.0,84,0.00,,,0.00,Wunderground v.1.15,2013-06-22 08:37:00,
2013-06-22 03:42:00,74.6,69.4,24.23,East,101,0.0,0.0,84,0.00,,,0.00,Wunderground v.1.15,2013-06-22 08:42:00,
2013-06-22 03:47:00,74.5,69.3,24.23,East,101,0.0,0.0,84,0.00,,,0.00,Wunderground v.1.15,2013-06-22 08:47:00,
2013-06-22 03:52:00,74.4,69.2,24.23,East,101,0.0,0.0,84,0.00,,,0.00,Wunderground v.1.15,2013-06-22 08:52:00,
2013-06-22 03:57:00,74.3,69.1,24.23,East,99,0.0,1.0,84,0.00,,,0.00,Wunderground v.1.15,2013-06-22 08:57:00,
2013-06-22 04:02:00,74.3,69.1,24.23,East,99,0.0,0.0,84,0.00,,,0.00,Wunderground v.1.15,2013-06-22 09:02:00,
2013-06-22 04:07:00,74.2,69.1,24.23,East,99,0.0,0.0,84,0.00,,,0.00,Wunderground v.1.15,2013-06-22 09:07:00,
2013-06-22 04:12:00,74.1,69.0,24.23,East,99,0.0,0.0,84,0.00,,,0.00,Wunderground v.1.15,2013-06-22 09:12:00,
2013-06-22 04:17:00,74.1,69.0,24.23,East,99,0.0,0.0,84,0.00,,,0.00,Wunderground v.1.15,2013-06-22 09:17:00,
2013-06-22 04:22:00,74.0,68.9,24.23,East,99,0.0,0.0,84,0.00,,,0.00,Wunderground v.1.15,2013-06-22 09:22:00,
2013-06-22 04:27:00,74.0,68.9,24.23,East,99,0.0,0.0,84,0.00,,,0.00,Wunderground v.1.15,2013-06-22 09:27:00,
2013-06-22 04:32:00,73.9,68.8,24.23,East,99,0.0,0.0,84,0.00,,,0.00,Wunderground v.1.15,2013-06-22 09:32:00,
2013-06-22 04:37:00,73.9,68.8,24.23,East,99,0.0,0.0,84,0.00,,,0.00,Wunderground v.1.15,2013-06-22 09:37:00,
2013-06-22 04:42:00,73.8,68.7,24.23,East,99,0.0,0.0,84,0.00,,,0.00,Wunderground v.1.15,2013-06-22 09:42:00,
2013-06-22 04:47:00,73.7,68.6,24.23,East,99,0.0,0.0,84,0.00,,,0.00,Wunderground v.1.15,2013-06-22 09:47:00,
2013-06-22 04:52:00,73.7,68.9,24.23,East,99,0.0,0.0,85,0.00,,,0.00,Wunderground v.1.15,2013-06-22 09:52:00,
2013-06-22 04:57:00,73.6,68.8,24.23,East,99,0.0,1.0,85,0.00,,,0.00,Wunderground v.1.15,2013-06-22 09:57:00,
2013-06-22 05:02:00,73.5,68.7,24.23,East,99,0.0,0.0,85,0.00,,,0.00,Wunderground v.1.15,2013-06-22 10:02:00,
2013-06-22 05:07:00,73.5,68.7,24.23,East,99,0.0,0.0,85,0.00,,,0.00,Wunderground v.1.15,2013-06-22 10:07:00,
2013-06-22 05:12:00,73.4,68.6,24.23,East,99,0.0,0.0,85,0.00,,,0.00,Wunderground v.1.15,2013-06-22 10:12:00,
2013-06-22 05:17:00,73.4,68.6,24.23,East,101,0.0,1.0,85,0.00,,,0.00,Wunderground v.1.15,2013-06-22 10:17:00,
2013-06-22 05:22:00,73.3,68.5,24.23,East,101,0.0,0.0,85,0.00,,,0.00,Wunderground v.1.15,2013-06-22 10:22:00,
2013-06-22 05:27:00,73.3,68.5,24.23,East,101,0.0,0.0,85,0.00,,,0.00,Wunderground v.1.15,2013-06-22 10:27:00,
2013-06-22 05:32:00,73.2,68.8,24.23,East,101,0.0,0.0,86,0.00,,,0.00,Wunderground v.1.15,2013-06-22 10:32:00,
2013-06-22 05:37:00,73.1,68.7,24.23,East,101,0.0,0.0,86,0.00,,,0.00,Wunderground v.1.15,2013-06-22 10:37:00,
2013-06-22 05:42:00,73.0,68.2,24.23,East,101,0.0,0.0,85,0.00,,,0.00,Wunderground v.1.15,2013-06-22 10:42:00,
2013-06-22 05:47:00,73.0,68.6,24.23,East,101,0.0,0.0,86,0.00,,,0.00,Wunderground v.1.15,2013-06-22 10:47:00,
2013-06-22 05:52:00,72.9,68.5,24.23,East,101,0.0,0.0,86,0.00,,,0.00,Wunderground v.1.15,2013-06-22 10:52:00,
2013-06-22 05:57:00,72.8,68.4,24.23,East,101,0.0,0.0,86,0.00,,,0.00,Wunderground v.1.15,2013-06-22 10:57:00,
2013-06-22 06:02:00,72.7,68.3,24.23,East,101,0.0,0.0,86,0.00,,,0.00,Wunderground v.1.15,2013-06-22 11:02:00,
2013-06-22 06:07:00,72.6,68.2,24.23,East,101,0.0,0.0,86,0.00,,,0.00,Wunderground v.1.15,2013-06-22 11:07:00,
2013-06-22 06:12:00,72.5,68.1,24.23,East,101,0.0,0.0,86,0.00,,,0.00,Wunderground v.1.15,2013-06-22 11:12:00,
2013-06-22 06:17:00,72.5,68.1,24.23,East,101,0.0,0.0,86,0.00,,,0.00,Wunderground v.1.15,2013-06-22 11:17:00,
2013-06-22 06:22:00,72.4,68.0,24.23,East,101,0.0,0.0,86,0.00,,,0.00,Wunderground v.1.15,2013-06-22 11:22:00,
2013-06-22 06:27:00,72.3,67.9,24.23,East,101,0.0,0.0,86,0.00,,,0.00,Wunderground v.1.15,2013-06-22 11:27:00,
2013-06-22 06:32:00,72.2,67.8,24.23,East,101,0.0,0.0,86,0.00,,,0.00,Wunderground v.1.15,2013-06-22 11:32:00,
2013-06-22 06:37:00,72.3,68.2,24.23,East,101,0.0,0.0,87,0.00,,,0.00,Wunderground v.1.15,2013-06-22 11:37:00,
2013-06-22 06:42:00,72.2,68.1,24.23,East,101,0.0,0.0,87,0.00,,,0.00,Wunderground v.1.15,2013-06-22 11:42:00,
2013-06-22 06:47:00,72.2,68.1,24.23,East,101,0.0,0.0,87,0.00,,,0.00,Wunderground v.1.15,2013-06-22 11:47:00,
2013-06-22 06:53:00,72.3,68.2,24.23,East,101,0.0,0.0,87,0.00,,,0.00,Wunderground v.1.15,2013-06-22 11:53:00,
2013-06-22 06:57:00,72.3,68.5,24.23,East,101,0.0,0.0,88,0.00,,,0.00,Wunderground v.1.15,2013-06-22 11:57:00,
2013-06-22 07:02:00,72.4,68.6,24.23,East,101,0.0,0.0,88,0.00,,,0.00,Wunderground v.1.15,2013-06-22 12:02:00,
2013-06-22 07:07:00,72.6,69.2,24.23,East,101,0.0,0.0,89,0.00,,,0.00,Wunderground v.1.15,2013-06-22 12:07:00,
2013-06-22 07:12:00,72.8,69.4,24.23,East,101,0.0,0.0,89,0.00,,,0.00,Wunderground v.1.15,2013-06-22 12:12:00,
2013-06-22 07:17:00,73.1,69.7,24.23,East,101,0.0,0.0,89,0.00,,,0.00,Wunderground v.1.15,2013-06-22 12:17:00,
2013-06-22 07:22:00,73.6,70.2,24.23,East,101,0.0,0.0,89,0.00,,,0.00,Wunderground v.1.15,2013-06-22 12:22:00,
2013-06-22 07:27:00,74.1,70.6,24.23,East,101,0.0,0.0,89,0.00,,,0.00,Wunderground v.1.15,2013-06-22 12:27:00,
2013-06-22 07:32:00,74.6,71.1,24.23,East,101,0.0,0.0,89,0.00,,,0.00,Wunderground v.1.15,2013-06-22 12:32:00,
2013-06-22 07:37:00,75.1,71.3,24.23,East,99,0.0,1.0,88,0.00,,,0.00,Wunderground v.1.15,2013-06-22 12:37:00,
2013-06-22 07:42:00,75.6,71.5,24.23,East,100,0.0,0.0,87,0.00,,,0.00,Wunderground v.1.15,2013-06-22 12:42:00,
2013-06-22 07:47:00,76.2,71.7,24.23,East,100,0.0,1.0,86,0.00,,,0.00,Wunderground v.1.15,2013-06-22 12:47:00,
2013-06-22 07:52:00,76.8,71.9,24.23,East,101,0.0,1.0,85,0.00,,,0.00,Wunderground v.1.15,2013-06-22 12:52:00,
2013-06-22 07:57:00,77.4,71.8,24.23,East,101,0.0,1.0,83,0.00,,,0.00,Wunderground v.1.15,2013-06-22 12:57:00,
2013-06-22 08:02:00,78.0,72.1,24.23,ESE,106,0.0,1.0,82,0.00,,,0.00,Wunderground v.1.15,2013-06-22 13:02:00,
2013-06-22 08:07:00,78.7,72.0,24.23,ESE,113,0.0,1.0,80,0.00,,,0.00,Wunderground v.1.15,2013-06-22 13:07:00,
2013-06-22 08:12:00,79.7,71.8,24.23,SSW,208,0.0,1.0,77,0.00,,,0.00,Wunderground v.1.15,2013-06-22 13:12:00,
2013-06-22 08:18:00,80.5,72.2,24.23,South,184,0.0,1.0,76,0.00,,,0.00,Wunderground v.1.15,2013-06-22 13:18:00,
2013-06-22 08:23:00,81.1,72.0,24.23,SSE,157,0.0,2.0,74,0.00,,,0.00,Wunderground v.1.15,2013-06-22 13:23:00,
2013-06-22 08:28:00,81.7,72.6,24.23,South,173,0.0,2.0,74,0.00,,,0.00,Wunderground v.1.15,2013-06-22 13:28:00,
2013-06-22 08:33:00,82.3,72.8,24.23,WSW,242,0.0,1.0,73,0.00,,,0.00,Wunderground v.1.15,2013-06-22 13:33:00,
2013-06-22 08:38:00,82.8,72.8,24.23,WSW,250,0.0,2.0,72,0.00,,,0.00,Wunderground v.1.15,2013-06-22 13:38:00,
2013-06-22 08:43:00,83.2,72.8,24.23,East,79,0.0,2.0,71,0.00,,,0.00,Wunderground v.1.15,2013-06-22 13:43:00,
2013-06-22 08:48:00,83.9,72.6,24.22,SW,227,0.0,2.0,69,0.00,,,0.00,Wunderground v.1.15,2013-06-22 13:48:00,
2013-06-22 08:53:00,84.3,72.6,24.22,NW,307,0.0,2.0,68,0.00,,,0.00,Wunderground v.1.15,2013-06-22 13:53:00,
2013-06-22 08:58:00,84.7,72.5,24.23,ESE,110,0.0,2.0,67,0.00,,,0.00,Wunderground v.1.15,2013-06-22 13:58:00,
2013-06-22 09:03:00,85.1,73.3,24.23,ESE,102,0.0,4.0,68,0.00,,,0.00,Wunderground v.1.15,2013-06-22 14:03:00,
2013-06-22 09:08:00,85.5,73.7,24.23,South,180,0.0,4.0,68,0.00,,,0.00,Wunderground v.1.15,2013-06-22 14:08:00,
2013-06-22 09:13:00,85.8,73.6,24.23,North,355,0.0,3.0,67,0.00,,,0.00,Wunderground v.1.15,2013-06-22 14:13:00,
2013-06-22 09:18:00,86.1,73.4,24.23,West,261,0.0,3.0,66,0.00,,,0.00,Wunderground v.1.15,2013-06-22 14:18:00,
2013-06-22 09:23:00,86.4,74.1,24.23,ENE,64,0.0,1.0,67,0.00,,,0.00,Wunderground v.1.15,2013-06-22 14:23:00,
2013-06-22 09:28:00,86.6,74.8,24.23,SSW,211,0.0,2.0,68,0.00,,,0.00,Wunderground v.1.15,2013-06-22 14:28:00,
2013-06-22 09:33:00,87.1,73.9,24.23,NNE,24,0.0,1.0,65,0.00,,,0.00,Wunderground v.1.15,2013-06-22 14:33:00,
2013-06-22 09:38:00,87.4,73.7,24.22,NE,46,0.0,3.0,64,0.00,,,0.00,Wunderground v.1.15,2013-06-22 14:38:00,
2013-06-22 09:43:00,87.6,73.9,24.22,SSW,211,0.0,1.0,64,0.00,,,0.00,Wunderground v.1.15,2013-06-22 14:43:00,
2013-06-22 09:48:00,87.7,74.0,24.19,NNW,336,0.0,5.0,64,0.00,,,0.00,Wunderground v.1.15,2013-06-22 14:48:00,
2013-06-22 09:53:00,87.8,74.1,24.22,WSW,244,0.0,2.0,64,0.00,,,0.00,Wunderground v.1.15,2013-06-22 14:53:00,
2013-06-22 09:58:00,88.0,74.3,24.22,NNW,333,0.0,2.0,64,0.00,,,0.00,Wunderground v.1.15,2013-06-22 14:58:00,
2013-06-22 10:03:00,88.3,74.6,24.22,North,5,0.0,1.0,64,0.00,,,0.00,Wunderground v.1.15,2013-06-22 15:03:00,
2013-06-22 10:08:00,88.4,73.7,24.22,NNW,331,0.0,2.0,62,0.00,,,0.00,Wunderground v.1.15,2013-06-22 15:08:00,
2013-06-22 10:13:00,88.9,75.1,24.22,NE,38,0.0,1.0,64,0.00,,,0.00,Wunderground v.1.15,2013-06-22 15:13:00,
2013-06-22 10:18:00,88.7,73.5,24.17,NW,309,0.0,3.0,61,0.00,,,0.00,Wunderground v.1.15,2013-06-22 15:18:00,
2013-06-22 10:23:00,88.9,74.2,24.18,South,182,0.0,2.0,62,0.00,,,0.00,Wunderground v.1.15,2013-06-22 15:23:00,
2013-06-22 10:28:00,89.0,74.3,24.31,East,79,0.0,2.0,62,0.00,,,0.00,Wunderground v.1.15,2013-06-22 15:28:00,
2013-06-22 10:33:00,89.7,74.5,24.28,WNW,302,0.0,2.0,61,0.00,,,0.00,Wunderground v.1.15,2013-06-22 15:33:00,
2013-06-22 10:38:00,90.0,74.7,24.28,NNW,337,1.0,2.0,61,0.00,,,0.00,Wunderground v.1.15,2013-06-22 15:38:00,
2013-06-22 10:43:00,90.1,74.3,24.22,SW,236,0.0,2.0,60,0.00,,,0.00,Wunderground v.1.15,2013-06-22 15:43:00,
2013-06-22 10:48:00,90.4,74.1,24.22,NE,46,0.0,4.0,59,0.00,,,0.00,Wunderground v.1.15,2013-06-22 15:48:00,
2013-06-22 10:53:00,90.4,74.6,24.22,NE,36,2.0,2.0,60,0.00,,,0.00,Wunderground v.1.15,2013-06-22 15:53:00,
2013-06-22 10:58:00,90.7,74.9,24.22,East,85,1.0,3.0,60,0.00,,,0.00,Wunderground v.1.15,2013-06-22 15:58:00,
2013-06-22 11:03:00,90.9,75.1,24.22,SW,233,0.0,2.0,60,0.00,,,0.00,Wunderground v.1.15,2013-06-22 16:03:00,
2013-06-22 11:08:00,90.4,74.6,24.11,SSE,149,0.0,5.0,60,0.00,,,0.00,Wunderground v.1.15,2013-06-22 16:08:00,
2013-06-22 11:13:00,90.2,74.9,24.24,SE,127,0.0,3.0,61,0.00,,,0.00,Wunderground v.1.15,2013-06-22 16:13:00,
2013-06-22 11:18:00,90.0,74.2,24.31,SW,217,0.0,3.0,60,0.00,,,0.00,Wunderground v.1.15,2013-06-22 16:18:00,
2013-06-22 11:23:00,89.7,74.0,24.31,NW,321,0.0,2.0,60,0.00,,,0.00,Wunderground v.1.15,2013-06-22 16:23:00,
2013-06-22 11:28:00,89.9,74.6,24.29,SW,231,0.0,2.0,61,0.00,,,0.00,Wunderground v.1.15,2013-06-22 16:28:00,
2013-06-22 11:34:00,90.7,75.4,24.26,SSW,198,0.0,4.0,61,0.00,,,0.00,Wunderground v.1.15,2013-06-22 16:34:00,
2013-06-22 11:39:00,90.6,74.8,24.26,NW,313,0.0,4.0,60,0.00,,,0.00,Wunderground v.1.15,2013-06-22 16:39:00,
2013-06-22 11:44:00,91.0,75.2,24.22,NNE,33,0.0,3.0,60,0.00,,,0.00,Wunderground v.1.15,2013-06-22 16:44:00,
2013-06-22 11:49:00,91.5,75.7,24.22,NNE,32,0.0,3.0,60,0.00,,,0.00,Wunderground v.1.15,2013-06-22 16:49:00,
2013-06-22 11:54:00,91.6,76.2,24.22,WNW,298,1.0,3.0,61,0.00,,,0.00,Wunderground v.1.15,2013-06-22 16:54:00,
2013-06-22 11:59:00,91.4,74.5,24.19,ESE,110,0.0,4.0,58,0.00,,,0.00,Wunderground v.1.15,2013-06-22 16:59:00,
2013-06-22 12:04:00,91.3,73.9,24.20,NNE,20,0.0,2.0,57,0.00,,,0.00,Wunderground v.1.15,2013-06-22 17:04:00,
2013-06-22 12:09:00,91.7,76.3,24.30,NNW,348,0.0,2.0,61,0.00,,,0.00,Wunderground v.1.15,2013-06-22 17:09:00,
2013-06-22 12:14:00,91.8,74.9,24.31,NW,305,0.0,1.0,58,0.00,,,0.00,Wunderground v.1.15,2013-06-22 17:14:00,
2013-06-22 12:19:00,92.2,74.8,24.31,West,273,0.0,1.0,57,0.00,,,0.00,Wunderground v.1.15,2013-06-22 17:19:00,
2013-06-22 12:24:00,92.0,75.1,24.31,NE,55,0.0,1.0,58,0.00,,,0.00,Wunderground v.1.15,2013-06-22 17:24:00,
2013-06-22 12:29:00,92.2,75.3,24.29,ENE,62,0.0,5.0,58,0.00,,,0.00,Wunderground v.1.15,2013-06-22 17:29:00,
2013-06-22 12:34:00,92.2,74.2,24.22,WNW,284,0.0,2.0,56,0.00,,,0.00,Wunderground v.1.15,2013-06-22 17:34:00,
2013-06-22 12:39:00,91.8,74.9,24.22,NE,55,0.0,2.0,58,0.00,,,0.00,Wunderground v.1.15,2013-06-22 17:39:00,
2013-06-22 12:44:00,91.6,75.2,24.22,WSW,252,0.0,1.0,59,0.00,,,0.00,Wunderground v.1.15,2013-06-22 17:44:00,
2013-06-22 12:49:00,91.8,74.4,24.22,SSE,165,1.0,4.0,57,0.00,,,0.00,Wunderground v.1.15,2013-06-22 17:49:00,
2013-06-22 12:54:00,91.9,75.0,24.22,South,187,0.0,5.0,58,0.00,,,0.00,Wunderground v.1.15,2013-06-22 17:54:00,
2013-06-22 12:59:00,91.5,75.7,24.15,NNW,332,0.0,5.0,60,0.00,,,0.00,Wunderground v.1.15,2013-06-22 17:59:00,
2013-06-22 13:04:00,92.6,76.2,24.31,NNW,345,0.0,1.0,59,0.00,,,0.00,Wunderground v.1.15,2013-06-22 18:04:00,
2013-06-22 13:09:00,92.9,75.4,24.30,SSW,194,0.0,2.0,57,0.00,,,0.00,Wunderground v.1.15,2013-06-22 18:09:00,
2013-06-22 13:14:00,92.5,74.5,24.31,ESE,104,0.0,5.0,56,0.00,,,0.00,Wunderground v.1.15,2013-06-22 18:14:00,
2013-06-22 13:19:00,92.1,74.7,24.31,NW,309,0.0,5.0,57,0.00,,,0.00,Wunderground v.1.15,2013-06-22 18:19:00,
2013-06-22 13:24:00,91.5,75.1,24.31,NNW,340,0.0,1.0,59,0.00,,,0.00,Wunderground v.1.15,2013-06-22 18:24:00,
2013-06-22 13:29:00,91.9,75.5,24.31,SSE,166,0.0,2.0,59,0.00,,,0.00,Wunderground v.1.15,2013-06-22 18:29:00,
2013-06-22 13:34:00,92.3,74.9,24.31,West,278,0.0,3.0,57,0.00,,,0.00,Wunderground v.1.15,2013-06-22 18:34:00,
2013-06-22 13:39:00,92.2,74.2,24.31,South,170,0.0,3.0,56,0.00,,,0.00,Wunderground v.1.15,2013-06-22 18:39:00,
2013-06-22 13:44:00,92.6,75.7,24.31,ENE,59,0.0,1.0,58,0.00,,,0.00,Wunderground v.1.15,2013-06-22 18:44:00,
2013-06-22 13:49:00,92.7,73.6,24.31,North,350,0.0,2.0,54,0.00,,,0.00,Wunderground v.1.15,2013-06-22 18:49:00,
2013-06-22 13:54:00,92.6,75.1,24.31,West,277,0.0,2.0,57,0.00,,,0.00,Wunderground v.1.15,2013-06-22 18:54:00,
2013-06-22 13:59:00,92.4,75.0,24.28,SSE,168,0.0,2.0,57,0.00,,,0.00,Wunderground v.1.15,2013-06-22 18:59:00,
2013-06-22 14:04:00,92.2,73.7,24.28,SE,132,1.0,4.0,55,0.00,,,0.00,Wunderground v.1.15,2013-06-22 19:04:00,
2013-06-22 14:09:00,91.8,74.4,24.09,East,84,0.0,4.0,57,0.00,,,0.00,Wunderground v.1.15,2013-06-22 19:09:00,
2013-06-22 14:14:00,92.0,74.6,24.08,SSW,205,0.0,3.0,57,0.00,,,0.00,Wunderground v.1.15,2013-06-22 19:14:00,
2013-06-22 14:19:00,92.5,74.5,24.08,WSW,243,0.0,3.0,56,0.00,,,0.00,Wunderground v.1.15,2013-06-22 19:19:00,
2013-06-22 14:24:00,92.4,73.9,24.26,WSW,238,0.0,2.0,55,0.00,,,0.00,Wunderground v.1.15,2013-06-22 19:24:00,
2013-06-22 14:29:00,92.6,74.6,24.28,WSW,238,0.0,2.0,56,0.00,,,0.00,Wunderground v.1.15,2013-06-22 19:29:00,
2013-06-22 14:34:00,93.1,74.5,24.28,NNW,346,0.0,4.0,55,0.00,,,0.00,Wunderground v.1.15,2013-06-22 19:34:00,
2013-06-22 14:39:00,93.1,75.1,24.31,WSW,242,0.0,4.0,56,0.00,,,0.00,Wunderground v.1.15,2013-06-22 19:39:00,
2013-06-22 14:44:00,93.2,74.6,24.30,West,267,1.0,1.0,55,0.00,,,0.00,Wunderground v.1.15,2013-06-22 19:44:00,
2013-06-22 14:49:00,92.9,73.2,24.31,WSW,238,0.0,2.0,53,0.00,,,0.00,Wunderground v.1.15,2013-06-22 19:49:00,
2013-06-22 14:54:00,92.9,74.9,24.31,North,9,1.0,1.0,56,0.00,,,0.00,Wunderground v.1.15,2013-06-22 19:54:00,
2013-06-22 14:59:00,93.0,75.0,24.31,NNW,336,0.0,3.0,56,0.00,,,0.00,Wunderground v.1.15,2013-06-22 19:59:00,
2013-06-22 15:04:00,93.2,75.2,24.31,SSE,163,0.0,1.0,56,0.00,,,0.00,Wunderground v.1.15,2013-06-22 20:04:00,
2013-06-22 15:09:00,93.3,75.3,24.31,SW,222,1.0,2.0,56,0.00,,,0.00,Wunderground v.1.15,2013-06-22 20:09:00,
2013-06-22 15:14:00,92.9,73.2,24.31,SW,222,0.0,2.0,53,0.00,,,0.00,Wunderground v.1.15,2013-06-22 20:14:00,
2013-06-22 15:19:00,92.4,73.3,24.30,WSW,256,0.0,2.0,54,0.00,,,0.00,Wunderground v.1.15,2013-06-22 20:19:00,
2013-06-22 15:24:00,92.1,72.5,24.30,WSW,250,0.0,4.0,53,0.00,,,0.00,Wunderground v.1.15,2013-06-22 20:24:00,
2013-06-22 15:29:00,92.0,73.5,24.31,ESE,117,0.0,4.0,55,0.00,,,0.00,Wunderground v.1.15,2013-06-22 20:29:00,
2013-06-22 15:34:00,91.8,73.3,24.31,SSW,208,0.0,1.0,55,0.00,,,0.00,Wunderground v.1.15,2013-06-22 20:34:00,
2013-06-22 15:39:00,91.5,73.6,24.32,South,185,0.0,1.0,56,0.00,,,0.00,Wunderground v.1.15,2013-06-22 20:39:00,
2013-06-22 15:44:00,91.4,71.9,24.23,SE,132,0.0,2.0,53,0.00,,,0.00,Wunderground v.1.15,2013-06-22 20:44:00,
2013-06-22 15:49:00,91.1,72.7,24.23,SW,221,0.0,3.0,55,0.00,,,0.00,Wunderground v.1.15,2013-06-22 20:49:00,
2013-06-22 15:54:00,91.0,73.1,24.23,SW,219,0.0,1.0,56,0.00,,,0.00,Wunderground v.1.15,2013-06-22 20:54:00,
2013-06-22 15:59:00,90.7,71.8,24.23,SSW,203,0.0,5.0,54,0.00,,,0.00,Wunderground v.1.15,2013-06-22 20:59:00,
2013-06-22 16:04:00,90.8,72.4,24.23,SSW,203,0.0,1.0,55,0.00,,,0.00,Wunderground v.1.15,2013-06-22 21:04:00,
2013-06-22 16:09:00,90.6,72.8,24.23,SSW,203,0.0,1.0,56,0.00,,,0.00,Wunderground v.1.15,2013-06-22 21:09:00,
2013-06-22 16:14:00,90.5,71.6,24.23,East,96,0.0,3.0,54,0.00,,,0.00,Wunderground v.1.15,2013-06-22 21:14:00,
2013-06-22 16:19:00,90.4,72.6,24.23,South,190,0.0,3.0,56,0.00,,,0.00,Wunderground v.1.15,2013-06-22 21:19:00,
2013-06-22 16:24:00,90.3,73.5,24.23,South,178,0.0,1.0,58,0.00,,,0.00,Wunderground v.1.15,2013-06-22 21:24:00,
2013-06-22 16:29:00,90.2,72.9,24.23,East,82,0.0,4.0,57,0.00,,,0.00,Wunderground v.1.15,2013-06-22 21:29:00,
2013-06-22 16:34:00,90.2,71.8,24.23,SSW,209,2.0,4.0,55,0.00,,,0.00,Wunderground v.1.15,2013-06-22 21:34:00,
2013-06-22 16:39:00,90.1,70.7,24.23,SW,234,0.0,4.0,53,0.00,,,0.00,Wunderground v.1.15,2013-06-22 21:39:00,
2013-06-22 16:44:00,89.9,70.5,24.23,SSW,192,0.0,2.0,53,0.00,,,0.00,Wunderground v.1.15,2013-06-22 21:44:00,
2013-06-22 16:49:00,89.8,70.4,24.23,SE,128,2.0,4.0,53,0.00,,,0.00,Wunderground v.1.15,2013-06-22 21:49:00,
2013-06-22 16:54:00,89.5,70.1,24.23,West,278,0.0,2.0,53,0.00,,,0.00,Wunderground v.1.15,2013-06-22 21:54:00,
2013-06-22 16:59:00,89.3,70.5,24.23,SW,227,0.0,2.0,54,0.00,,,0.00,Wunderground v.1.15,2013-06-22 21:59:00,
2013-06-22 17:04:00,89.2,70.9,24.23,SSE,167,0.0,2.0,55,0.00,,,0.00,Wunderground v.1.15,2013-06-22 22:04:00,
2013-06-22 17:09:00,89.1,71.4,24.23,South,182,0.0,4.0,56,0.00,,,0.00,Wunderground v.1.15,2013-06-22 22:09:00,
2013-06-22 17:14:00,89.0,71.3,24.23,North,11,0.0,1.0,56,0.00,,,0.00,Wunderground v.1.15,2013-06-22 22:14:00,
2013-06-22 17:19:00,88.8,71.6,24.23,East,99,0.0,4.0,57,0.00,,,0.00,Wunderground v.1.15,2013-06-22 22:19:00,
2013-06-22 17:24:00,88.7,70.5,24.23,SW,233,0.0,1.0,55,0.00,,,0.00,Wunderground v.1.15,2013-06-22 22:24:00,
2013-06-22 17:29:00,88.5,69.7,24.23,SSW,192,0.0,4.0,54,0.00,,,0.00,Wunderground v.1.15,2013-06-22 22:29:00,
2013-06-22 17:34:00,88.3,70.6,24.24,South,191,0.0,3.0,56,0.00,,,0.00,Wunderground v.1.15,2013-06-22 22:34:00,
2013-06-22 17:39:00,88.2,71.0,24.24,East,88,0.0,5.0,57,0.00,,,0.00,Wunderground v.1.15,2013-06-22 22:39:00,
2013-06-22 17:45:00,88.2,70.5,24.24,SW,219,0.0,2.0,56,0.00,,,0.00,Wunderground v.1.15,2013-06-22 22:45:00,
2013-06-22 17:50:00,88.1,70.9,24.24,SSE,155,0.0,0.0,57,0.00,,,0.00,Wunderground v.1.15,2013-06-22 22:50:00,
2013-06-22 17:55:00,88.1,70.9,24.24,NE,49,0.0,1.0,57,0.00,,,0.00,Wunderground v.1.15,2013-06-22 22:55:00,
2013-06-22 18:00:00,88.0,71.4,24.24,NE,51,0.0,1.0,58,0.00,,,0.00,Wunderground v.1.15,2013-06-22 23:00:00,
2013-06-22 18:05:00,87.8,71.2,24.24,West,276,0.0,2.0,58,0.00,,,0.00,Wunderground v.1.15,2013-06-22 23:05:00,
2013-06-22 18:10:00,87.7,71.6,24.23,NE,45,0.0,0.0,59,0.00,,,0.00,Wunderground v.1.15,2013-06-22 23:10:00,
2013-06-22 18:15:00,87.6,71.0,24.24,NNE,15,0.0,4.0,58,0.00,,,0.00,Wunderground v.1.15,2013-06-22 23:15:00,
2013-06-22 18:20:00,87.5,71.4,24.24,SSE,155,0.0,1.0,59,0.00,,,0.00,Wunderground v.1.15,2013-06-22 23:20:00,
2013-06-22 18:25:00,87.4,71.3,24.24,WSW,251,0.0,1.0,59,0.00,,,0.00,Wunderground v.1.15,2013-06-22 23:25:00,
2013-06-22 18:30:00,87.4,71.3,24.24,SSE,154,0.0,2.0,59,0.00,,,0.00,Wunderground v.1.15,2013-06-22 23:30:00,
2013-06-22 18:35:00,87.2,71.1,24.24,SW,229,1.0,3.0,59,0.00,,,0.00,Wunderground v.1.15,2013-06-22 23:35:00,
2013-06-22 18:40:00,87.2,71.1,24.24,WSW,245,0.0,0.0,59,0.00,,,0.00,Wunderground v.1.15,2013-06-22 23:40:00,
2013-06-22 18:45:00,87.1,71.0,24.24,WNW,290,0.0,4.0,59,0.00,,,0.00,Wunderground v.1.15,2013-06-22 23:45:00,
2013-06-22 18:50:00,87.1,71.0,24.24,SSE,153,0.0,1.0,59,0.00,,,0.00,Wunderground v.1.15,2013-06-22 23:50:00,
2013-06-22 18:55:00,87.0,71.4,24.24,SSW,192,0.0,1.0,60,0.00,,,0.00,Wunderground v.1.15,2013-06-22 23:55:00,
2013-06-22 19:00:00,86.8,70.8,24.23,SSW,209,0.0,0.0,59,0.00,,,0.00,Wunderground v.1.15,2013-06-23 00:00:00,
2013-06-22 19:05:00,86.7,71.2,24.23,SSW,205,0.0,1.0,60,0.00,,,0.00,Wunderground v.1.15,2013-06-23 00:05:00,
2013-06-22 19:10:00,86.6,71.1,24.23,West,279,0.0,0.0,60,0.00,,,0.00,Wunderground v.1.15,2013-06-23 00:10:00,
2013-06-22 19:15:00,86.5,71.0,24.23,East,96,0.0,1.0,60,0.00,,,0.00,Wunderground v.1.15,2013-06-23 00:15:00,
2013-06-22 19:20:00,86.3,70.8,24.23,SE,134,0.0,0.0,60,0.00,,,0.00,Wunderground v.1.15,2013-06-23 00:20:00,
2013-06-22 19:25:00,86.1,70.6,24.23,WNW,291,0.0,1.0,60,0.00,,,0.00,Wunderground v.1.15,2013-06-23 00:25:00,
2013-06-22 19:30:00,86.1,71.1,24.23,WNW,291,0.0,0.0,61,0.00,,,0.00,Wunderground v.1.15,2013-06-23 00:30:00,
2013-06-22 19:35:00,85.9,70.9,24.23,WNW,291,0.0,1.0,61,0.00,,,0.00,Wunderground v.1.15,2013-06-23 00:35:00,
2013-06-22 19:40:00,85.8,71.3,24.23,WNW,291,0.0,0.0,62,0.00,,,0.00,Wunderground v.1.15,2013-06-23 00:40:00,
2013-06-22 19:45:00,85.6,71.1,24.23,SE,132,0.0,1.0,62,0.00,,,0.00,Wunderground v.1.15,2013-06-23 00:45:00,
2013-06-22 19:50:00,85.4,71.4,24.23,South,179,0.0,0.0,63,0.00,,,0.00,Wunderground v.1.15,2013-06-23 00:50:00,
2013-06-22 19:55:00,85.3,71.3,24.23,South,179,0.0,0.0,63,0.00,,,0.00,Wunderground v.1.15,2013-06-23 00:55:00,
2013-06-22 20:00:00,85.0,71.0,24.23,ESE,110,0.0,0.0,63,0.00,,,0.00,Wunderground v.1.15,2013-06-23 01:00:00,
2013-06-22 20:05:00,84.7,70.7,24.23,ESE,116,0.0,0.0,63,0.00,,,0.00,Wunderground v.1.15,2013-06-23 01:05:00,
2013-06-22 20:10:00,84.5,71.0,24.23,SSW,210,0.0,2.0,64,0.00,,,0.00,Wunderground v.1.15,2013-06-23 01:10:00,
2013-06-22 20:15:00,84.3,70.8,24.23,SSW,211,0.0,2.0,64,0.00,,,0.00,Wunderground v.1.15,2013-06-23 01:15:00,
2013-06-22 20:20:00,84.0,70.5,24.23,West,264,0.0,0.0,64,0.00,,,0.00,Wunderground v.1.15,2013-06-23 01:20:00,
2013-06-22 20:25:00,83.7,70.2,24.23,West,264,0.0,1.0,64,0.00,,,0.00,Wunderground v.1.15,2013-06-23 01:25:00,
2013-06-22 20:30:00,83.5,70.5,24.23,West,263,0.0,0.0,65,0.00,,,0.00,Wunderground v.1.15,2013-06-23 01:30:00,
2013-06-22 20:35:00,83.2,70.2,24.23,West,263,0.0,0.0,65,0.00,,,0.00,Wunderground v.1.15,2013-06-23 01:35:00,
2013-06-22 20:40:00,82.9,69.9,24.23,West,263,0.0,0.0,65,0.00,,,0.00,Wunderground v.1.15,2013-06-23 01:40:00,
2013-06-22 20:45:00,82.7,69.7,24.23,South,190,0.0,4.0,65,0.00,,,0.00,Wunderground v.1.15,2013-06-23 01:45:00,
2013-06-22 20:50:00,82.4,69.4,24.23,South,190,0.0,0.0,65,0.00,,,0.00,Wunderground v.1.15,2013-06-23 01:50:00,
2013-06-22 20:55:00,82.2,69.7,24.23,South,190,0.0,0.0,66,0.00,,,0.00,Wunderground v.1.15,2013-06-23 01:55:00,
2013-06-22 21:00:00,82.0,69.5,24.23,SSW,210,0.0,0.0,66,0.00,,,0.00,Wunderground v.1.15,2013-06-23 02:00:00,
2013-06-22 21:05:00,81.8,69.8,24.23,WNW,301,0.0,2.0,67,0.00,,,0.00,Wunderground v.1.15,2013-06-23 02:05:00,
2013-06-22 21:10:00,81.6,69.6,24.23,WSW,244,0.0,0.0,67,0.00,,,0.00,Wunderground v.1.15,2013-06-23 02:10:00,
2013-06-22 21:15:00,81.3,69.7,24.23,WSW,244,0.0,1.0,68,0.00,,,0.00,Wunderground v.1.15,2013-06-23 02:15:00,
2013-06-22 21:20:00,81.2,69.6,24.23,WSW,244,0.0,1.0,68,0.00,,,0.00,Wunderground v.1.15,2013-06-23 02:20:00,
2013-06-22 21:25:00,81.0,69.4,24.23,WSW,244,0.0,1.0,68,0.00,,,0.00,Wunderground v.1.15,2013-06-23 02:25:00,
2013-06-22 21:30:00,80.8,69.7,24.23,WSW,253,0.0,0.0,69,0.00,,,0.00,Wunderground v.1.15,2013-06-23 02:30:00,
2013-06-22 21:35:00,80.7,69.6,24.23,SW,229,0.0,2.0,69,0.00,,,0.00,Wunderground v.1.15,2013-06-23 02:35:00,
2013-06-22 21:40:00,80.5,69.8,24.23,ESE,114,0.0,1.0,70,0.00,,,0.00,Wunderground v.1.15,2013-06-23 02:40:00,
2013-06-22 21:46:00,80.4,69.7,24.23,ESE,123,0.0,1.0,70,0.00,,,0.00,Wunderground v.1.15,2013-06-23 02:46:00,
2013-06-22 21:51:00,80.3,70.0,24.23,SE,124,0.0,0.0,71,0.00,,,0.00,Wunderground v.1.15,2013-06-23 02:51:00,
2013-06-22 21:56:00,80.2,69.9,24.23,South,178,0.0,1.0,71,0.00,,,0.00,Wunderground v.1.15,2013-06-23 02:56:00,
2013-06-22 22:01:00,80.0,69.7,24.23,South,178,0.0,0.0,71,0.00,,,0.00,Wunderground v.1.15,2013-06-23 03:01:00,
2013-06-22 22:06:00,79.9,70.1,24.23,South,178,0.0,0.0,72,0.00,,,0.00,Wunderground v.1.15,2013-06-23 03:06:00,
2013-06-22 22:11:00,79.8,70.0,24.23,South,178,0.0,0.0,72,0.00,,,0.00,Wunderground v.1.15,2013-06-23 03:11:00,
2013-06-22 22:16:00,79.7,69.9,24.23,South,178,0.0,0.0,72,0.00,,,0.00,Wunderground v.1.15,2013-06-23 03:16:00,
2013-06-22 22:21:00,79.5,70.1,24.23,South,178,0.0,0.0,73,0.00,,,0.00,Wunderground v.1.15,2013-06-23 03:21:00,
2013-06-22 22:26:00,79.4,70.0,24.23,South,178,0.0,0.0,73,0.00,,,0.00,Wunderground v.1.15,2013-06-23 03:26:00,
2013-06-22 22:31:00,79.3,70.3,24.23,South,178,0.0,0.0,74,0.00,,,0.00,Wunderground v.1.15,2013-06-23 03:31:00,
2013-06-22 22:36:00,79.1,70.5,24.23,South,178,0.0,0.0,75,0.00,,,0.00,Wunderground v.1.15,2013-06-23 03:36:00,
2013-06-22 22:41:00,78.9,70.3,24.23,South,178,0.0,0.0,75,0.00,,,0.00,Wunderground v.1.15,2013-06-23 03:41:00,
2013-06-22 22:46:00,78.8,70.6,24.23,South,178,0.0,0.0,76,0.00,,,0.00,Wunderground v.1.15,2013-06-23 03:46:00,
2013-06-22 22:51:00,78.7,70.5,24.23,South,173,0.0,0.0,76,0.00,,,0.00,Wunderground v.1.15,2013-06-23 03:51:00,
2013-06-22 22:56:00,78.7,70.9,24.22,South,169,0.0,1.0,77,0.00,,,0.00,Wunderground v.1.15,2013-06-23 03:56:00,
2013-06-22 23:01:00,78.5,70.7,24.22,West,267,0.0,0.0,77,0.00,,,0.00,Wunderground v.1.15,2013-06-23 04:01:00,
2013-06-22 23:06:00,78.3,70.5,24.22,West,267,0.0,0.0,77,0.00,,,0.00,Wunderground v.1.15,2013-06-23 04:06:00,
2013-06-22 23:11:00,78.2,70.4,24.22,West,267,0.0,0.0,77,0.00,,,0.00,Wunderground v.1.15,2013-06-23 04:11:00,
2013-06-22 23:16:00,78.1,70.7,24.22,West,267,0.0,0.0,78,0.00,,,0.00,Wunderground v.1.15,2013-06-23 04:16:00,
2013-06-22 23:21:00,78.0,70.6,24.22,West,267,0.0,0.0,78,0.00,,,0.00,Wunderground v.1.15,2013-06-23 04:21:00,
2013-06-22 23:26:00,77.9,70.5,24.22,West,267,0.0,0.0,78,0.00,,,0.00,Wunderground v.1.15,2013-06-23 04:26:00,
2013-06-22 23:31:00,77.7,70.7,24.22,West,267,0.0,0.0,79,0.00,,,0.00,Wunderground v.1.15,2013-06-23 04:31:00,
2013-06-22 23:36:00,77.5,70.5,24.22,NNW,334,0.0,2.0,79,0.00,,,0.00,Wunderground v.1.15,2013-06-23 04:36:00,
2013-06-22 23:41:00,77.4,70.4,24.23,NNW,334,0.0,0.0,79,0.00,,,0.00,Wunderground v.1.15,2013-06-23 04:41:00,
2013-06-22 23:46:00,77.3,70.6,24.23,NNW,335,0.0,0.0,80,0.00,,,0.00,Wunderground v.1.15,2013-06-23 04:46:00,
2013-06-22 23:51:00,77.1,70.5,24.23,NNW,335,0.0,0.0,80,0.00,,,0.00,Wunderground v.1.15,2013-06-23 04:51:00,
2013-06-22 23:56:00,77.0,70.4,24.23,SSW,209,0.0,2.0,80,0.00,,,0.00,Wunderground v.1.15,2013-06-23 04:56:00,